Flag for France Weather past 2 weeks in Paris, France

Now
41 °F

Mostly cloudy.


Feels Like: 36 °F
Forecast: 39 / 45 °F
Wind: 8 mph from Southwest

Location: Villacoublay

Current Time: Jan 26, 2015 at 10:01:22 AM

Latest Report: Jan 26, 2015 at 9:30 AM


Visibility: N/A

Pressure: 30.27 "Hg

Humidity: 93%

Dew point: 39 °F

Location of ParisLocation

Historic Weather in Paris — Graph

°F

Paris temperature yesterday

Maximum temperature yesterday: 43 °F (at 2:30 PM)
Minimum temperature yesterday: 32 °F (at 1:30 AM)
Average temperature yesterday: 37 °F

Past Weeks' High & Low Weather Summary

 TemperatureHumidityPressure
High50 °F (Jan 15, 9:30 AM)100% (Jan 16, 6:00 AM)30.51 "Hg (Jan 16, 6:00 AM)
Low28 °F (Jan 20, 7:00 PM)61% (Jan 11, 5:00 PM)29.50 "Hg (Jan 15, 1:00 PM)
Average38 °F85%30.01 "Hg
* Reported Jan 11 9:00 AM — Jan 26 9:00 AM, Paris, Weather by CustomWeather, © 2014

Note: Actual official high and low records may vary slightly from our data, if they occured in-between our weather recording intervals... More about our weather records

Advertising

Paris weather history for previous 24 hours

 ConditionsComfort  
Time TempWeatherWind HumidityBarometerVisibility
9:00 AM
Jan 26
41 °FMostly cloudy.9 mph93%30.27 "HgN/A
8:30 AM41 °FMostly cloudy.10 mph93%30.27 "HgN/A
8:00 AM41 °FLow clouds.8 mph93%30.27 "HgN/A
7:30 AM39 °FPassing clouds.8 mph100%30.30 "HgN/A
7:00 AM39 °FMostly cloudy.10 mph100%30.30 "Hg4 mi
6:30 AM39 °FDrizzle. Fog.12 mph100%30.30 "Hg3 mi
6:00 AM39 °FDrizzle. Mostly cloudy.9 mph100%30.30 "Hg4 mi
5:30 AM39 °FFog.9 mph100%30.30 "Hg2 mi
5:00 AM39 °FFog.10 mph100%30.33 "Hg2 mi
4:30 AM39 °FFog.8 mph100%30.33 "Hg2 mi
4:00 AM39 °FFog.7 mph100%30.33 "Hg3 mi
3:30 AM39 °FFog.5 mph93%30.36 "Hg1 mi
3:00 AM39 °FLight rain. Fog.8 mph93%30.36 "Hg2 mi
2:30 AM39 °FPartly cloudy.7 mph81%30.36 "HgN/A
2:00 AM39 °FMostly cloudy.7 mph81%30.39 "HgN/A
1:30 AM39 °FOvercast.6 mph81%30.39 "HgN/A
1:00 AM39 °FMostly cloudy.6 mph81%30.39 "HgN/A
12:30 AM39 °FMostly cloudy.6 mph81%30.39 "HgN/A
12:00 AM39 °FOvercast.5 mph81%30.39 "HgN/A
11:30 PM
Jan 25
39 °FMostly cloudy.5 mph81%30.42 "HgN/A
11:00 PM39 °FLight rain. Overcast.5 mph81%30.42 "HgN/A
10:30 PM39 °FOvercast.5 mph81%30.42 "HgN/A
10:00 PM39 °FOvercast.6 mph81%30.42 "HgN/A
9:30 PM39 °FOvercast.3 mph81%30.45 "HgN/A
9:00 PM39 °FMostly cloudy.3 mph81%30.45 "HgN/A
8:30 PM39 °FMostly cloudy.2 mph81%30.45 "HgN/A
8:00 PM39 °FClear.6 mph87%30.45 "HgN/A
7:30 PM39 °FClear.3 mph81%30.45 "HgN/A
7:00 PM41 °FClear.3 mph81%30.45 "HgN/A
6:30 PM41 °FClear.5 mph81%30.45 "HgN/A
6:00 PM41 °FClear.3 mph76%30.45 "HgN/A
5:30 PM41 °FClear.5 mph81%30.45 "HgN/A
5:00 PM41 °FClear.6 mph81%30.45 "HgN/A
4:30 PM43 °FClear.7 mph76%30.45 "HgN/A
4:00 PM41 °FClear.7 mph76%30.45 "HgN/A
3:30 PM43 °FClear.7 mph76%30.45 "HgN/A
3:00 PM43 °FClear.6 mph71%30.45 "HgN/A
2:30 PM43 °FClear.6 mph71%30.45 "HgN/A
2:00 PM41 °FClear.5 mph76%30.45 "HgN/A
1:30 PM41 °FClear.5 mph76%30.48 "HgN/A
1:00 PM39 °FClear.3 mph87%30.48 "HgN/A
12:30 PM37 °FClear.5 mph87%30.48 "HgN/A
12:00 PM37 °FClear.7 mph87%30.48 "HgN/A
11:30 AM37 °FClear.9 mph81%30.51 "HgN/A
11:00 AM36 °FClear.7 mph87%30.51 "HgN/A
10:30 AM36 °FClear.7 mph87%30.51 "HgN/A
10:00 AM34 °FClear.6 mph87%30.51 "HgN/A
Weather by CustomWeather, © 2014

See weather overviewHow to use our weather pages